Time,TemperatureF,DewpointF,PressureIn,WindDirection,WindDirectionDegrees,WindSpeedMPH,WindSpeedGustMPH,Humidity,HourlyPrecipIn,Conditions,Clouds,dailyrainin,SoftwareType,DateUTC
2013-03-05 00:02:00,44.0,38.0,29.91,East,100,7.0,13.0,79,0.00,,,0.00,,2013-03-05 08:02:00,
2013-03-05 00:11:00,44.0,38.0,29.91,East,100,7.0,13.0,79,0.00,,,0.00,,2013-03-05 08:11:00,
2013-03-05 00:21:00,44.0,38.0,29.91,NE,53,8.0,16.0,79,0.00,,,0.00,,2013-03-05 08:21:00,
2013-03-05 00:31:00,45.0,38.0,29.90,East,87,8.0,15.0,77,0.00,,,0.00,,2013-03-05 08:31:00,
2013-03-05 00:41:00,45.0,38.0,29.90,East,87,8.0,15.0,77,0.00,,,0.00,,2013-03-05 08:41:00,
2013-03-05 00:51:00,46.0,39.0,29.90,ESE,108,7.0,14.0,76,0.00,,,0.00,,2013-03-05 08:51:00,
2013-03-05 01:01:00,46.0,39.0,29.90,ENE,57,7.0,14.0,76,0.00,,,0.00,,2013-03-05 09:01:00,
2013-03-05 01:11:00,46.0,39.0,29.90,ENE,57,7.0,14.0,76,0.00,,,0.00,,2013-03-05 09:11:00,
2013-03-05 01:21:00,48.0,36.0,29.89,ENE,71,4.0,15.0,64,0.00,,,0.00,,2013-03-05 09:21:00,
2013-03-05 01:31:00,48.0,37.0,29.89,ESE,113,2.0,10.0,66,0.00,,,0.00,,2013-03-05 09:31:00,
2013-03-05 01:42:00,48.0,37.0,29.89,ESE,113,2.0,10.0,66,0.00,,,0.00,,2013-03-05 09:42:00,
2013-03-05 01:51:00,49.0,37.0,29.88,East,83,4.0,8.0,62,0.00,,,0.00,,2013-03-05 09:51:00,
2013-03-05 02:01:00,47.0,38.0,29.88,ESE,122,3.0,8.0,70,0.00,,,0.00,,2013-03-05 10:01:00,
2013-03-05 02:11:00,47.0,38.0,29.88,ESE,122,3.0,8.0,70,0.00,,,0.00,,2013-03-05 10:11:00,
2013-03-05 02:21:00,46.0,39.0,29.88,SSE,149,2.0,7.0,75,0.01,,,0.01,,2013-03-05 10:21:00,
2013-03-05 02:32:00,44.0,39.0,29.88,NE,42,0.0,6.0,81,0.02,,,0.02,,2013-03-05 10:32:00,
2013-03-05 02:41:00,44.0,39.0,29.88,NE,42,0.0,6.0,81,0.02,,,0.02,,2013-03-05 10:41:00,
2013-03-05 02:51:00,44.0,39.0,29.88,North,355,2.0,7.0,83,0.04,,,0.04,,2013-03-05 10:51:00,
2013-03-05 03:01:00,45.0,40.0,29.88,ENE,65,2.0,5.0,83,0.07,,,0.07,,2013-03-05 11:01:00,
2013-03-05 03:11:00,45.0,40.0,29.88,ENE,65,2.0,5.0,83,0.07,,,0.07,,2013-03-05 11:11:00,
2013-03-05 03:21:00,44.0,39.0,29.88,East,80,0.0,3.0,84,0.08,,,0.09,,2013-03-05 11:21:00,
2013-03-05 03:32:00,45.0,41.0,29.88,ESE,107,5.0,10.0,87,0.11,,,0.13,,2013-03-05 11:32:00,
2013-03-05 03:41:00,45.0,41.0,29.88,ESE,107,5.0,10.0,87,0.11,,,0.13,,2013-03-05 11:41:00,
2013-03-05 03:52:00,45.0,41.0,29.87,SSW,198,5.0,13.0,87,0.10,,,0.15,,2013-03-05 11:52:00,
2013-03-05 04:02:00,46.0,43.0,29.87,SSE,157,3.0,10.0,88,0.08,,,0.15,,2013-03-05 12:02:00,
2013-03-05 04:11:00,46.0,43.0,29.87,SSE,157,3.0,10.0,88,0.08,,,0.15,,2013-03-05 12:11:00,
2013-03-05 04:22:00,46.0,43.0,29.87,South,185,2.0,10.0,89,0.07,,,0.16,,2013-03-05 12:22:00,
2013-03-05 04:32:00,46.0,43.0,29.86,SW,215,3.0,8.0,90,0.04,,,0.17,,2013-03-05 12:32:00,
2013-03-05 04:42:00,46.0,43.0,29.86,SW,215,3.0,8.0,90,0.04,,,0.17,,2013-03-05 12:42:00,
2013-03-05 04:52:00,46.0,43.0,29.86,SE,127,3.0,14.0,90,0.02,,,0.17,,2013-03-05 12:52:00,
2013-03-05 05:01:00,46.0,43.0,29.86,West,277,1.0,11.0,90,0.01,,,0.17,,2013-03-05 13:01:00,
2013-03-05 05:11:00,46.0,43.0,29.86,West,277,1.0,11.0,90,0.01,,,0.17,,2013-03-05 13:11:00,
2013-03-05 05:21:00,46.0,43.0,29.87,WNW,287,5.0,10.0,90,0.03,,,0.19,,2013-03-05 13:21:00,
2013-03-05 05:31:00,44.0,41.0,29.88,WNW,284,6.0,10.0,90,0.05,,,0.22,,2013-03-05 13:31:00,
2013-03-05 05:42:00,44.0,41.0,29.88,WNW,284,6.0,10.0,90,0.05,,,0.22,,2013-03-05 13:42:00,
2013-03-05 05:52:00,43.0,41.0,29.88,WNW,301,4.0,8.0,91,0.06,,,0.23,,2013-03-05 13:52:00,
2013-03-05 06:02:00,43.0,41.0,29.88,WSW,257,3.0,10.0,91,0.08,,,0.25,,2013-03-05 14:02:00,
2013-03-05 06:11:00,43.0,41.0,29.88,WSW,257,3.0,10.0,91,0.08,,,0.25,,2013-03-05 14:11:00,
2013-03-05 06:21:00,42.0,40.0,29.88,West,277,0.0,6.0,91,0.07,,,0.26,,2013-03-05 14:21:00,
2013-03-05 06:31:00,42.0,40.0,29.88,NW,310,0.0,1.0,92,0.05,,,0.27,,2013-03-05 14:31:00,
2013-03-05 06:41:00,42.0,40.0,29.88,NW,310,0.0,1.0,92,0.05,,,0.27,,2013-03-05 14:41:00,
2013-03-05 06:52:00,42.0,40.0,29.88,NE,44,0.0,0.0,92,0.06,,,0.28,,2013-03-05 14:52:00,
2013-03-05 07:01:00,42.0,40.0,29.88,NE,44,0.0,0.0,93,0.06,,,0.31,,2013-03-05 15:01:00,
2013-03-05 07:11:00,42.0,40.0,29.88,NE,44,0.0,0.0,93,0.06,,,0.31,,2013-03-05 15:11:00,
2013-03-05 07:21:00,42.0,40.0,29.88,NE,44,0.0,0.0,93,0.08,,,0.34,,2013-03-05 15:21:00,
2013-03-05 07:31:00,41.0,39.0,29.87,ENE,61,0.0,2.0,93,0.08,,,0.35,,2013-03-05 15:31:00,
2013-03-05 07:42:00,41.0,39.0,29.87,ENE,61,0.0,2.0,93,0.08,,,0.35,,2013-03-05 15:42:00,
2013-03-05 07:52:00,41.0,39.0,29.87,ENE,59,0.0,3.0,94,0.08,,,0.37,,2013-03-05 15:52:00,
2013-03-05 08:01:00,41.0,39.0,29.88,East,94,0.0,2.0,94,0.06,,,0.37,,2013-03-05 16:01:00,
2013-03-05 08:11:00,41.0,39.0,29.88,East,94,0.0,2.0,94,0.06,,,0.37,,2013-03-05 16:11:00,
2013-03-05 08:21:00,41.0,39.0,29.88,East,85,0.0,3.0,94,0.04,,,0.38,,2013-03-05 16:21:00,
2013-03-05 08:31:00,41.0,39.0,29.87,ESE,108,1.0,5.0,94,0.04,,,0.39,,2013-03-05 16:31:00,
2013-03-05 08:41:00,41.0,39.0,29.87,ESE,108,1.0,5.0,94,0.04,,,0.39,,2013-03-05 16:41:00,
2013-03-05 08:52:00,41.0,39.0,29.87,East,90,2.0,5.0,94,0.02,,,0.39,,2013-03-05 16:52:00,
2013-03-05 09:01:00,41.0,39.0,29.87,ESE,104,4.0,9.0,94,0.03,,,0.40,,2013-03-05 17:01:00,
2013-03-05 09:11:00,41.0,39.0,29.87,ESE,104,4.0,9.0,94,0.03,,,0.40,,2013-03-05 17:11:00,
2013-03-05 09:21:00,41.0,39.0,29.86,East,94,3.0,10.0,94,0.02,,,0.40,,2013-03-05 17:21:00,
2013-03-05 09:32:00,41.0,39.0,29.86,ENE,76,2.0,9.0,94,0.01,,,0.40,,2013-03-05 17:32:00,
2013-03-05 09:41:00,41.0,39.0,29.86,ENE,76,2.0,9.0,94,0.01,,,0.40,,2013-03-05 17:41:00,
2013-03-05 09:52:00,41.0,39.0,29.86,SE,143,2.0,8.0,94,0.01,,,0.40,,2013-03-05 17:52:00,
2013-03-05 10:01:00,41.0,39.0,29.86,SE,128,3.0,8.0,94,0.00,,,0.40,,2013-03-05 18:01:00,
2013-03-05 10:11:00,41.0,39.0,29.86,SE,128,3.0,8.0,94,0.00,,,0.40,,2013-03-05 18:11:00,
2013-03-05 10:21:00,42.0,40.0,29.85,East,97,2.0,9.0,94,0.01,,,0.41,,2013-03-05 18:21:00,
2013-03-05 10:31:00,42.0,40.0,29.85,ESE,115,3.0,8.0,94,0.01,,,0.41,,2013-03-05 18:31:00,
2013-03-05 10:41:00,42.0,40.0,29.85,ESE,115,3.0,8.0,94,0.01,,,0.41,,2013-03-05 18:41:00,
2013-03-05 10:53:00,42.0,40.0,29.85,SE,126,2.0,7.0,94,0.01,,,0.41,,2013-03-05 18:53:00,
2013-03-05 11:01:00,42.0,40.0,29.85,East,79,1.0,5.0,94,0.02,,,0.42,,2013-03-05 19:01:00,
2013-03-05 11:11:00,42.0,40.0,29.85,East,79,1.0,5.0,94,0.02,,,0.42,,2013-03-05 19:11:00,
2013-03-05 11:21:00,42.0,40.0,29.84,East,81,1.0,6.0,94,0.01,,,0.42,,2013-03-05 19:21:00,
2013-03-05 11:31:00,43.0,41.0,29.85,ESE,123,0.0,2.0,94,0.02,,,0.43,,2013-03-05 19:31:00,
2013-03-05 11:41:00,43.0,41.0,29.85,ESE,123,0.0,2.0,94,0.02,,,0.43,,2013-03-05 19:41:00,
2013-03-05 11:52:00,43.0,41.0,29.84,East,84,0.0,2.0,94,0.02,,,0.43,,2013-03-05 19:52:00,
2013-03-05 12:01:00,43.0,41.0,29.84,East,84,0.0,2.0,94,0.02,,,0.43,,2013-03-05 20:01:00,
2013-03-05 12:11:00,44.0,42.0,29.84,SSE,166,0.0,0.0,94,0.02,,,0.44,,2013-03-05 20:11:00,
2013-03-05 12:21:00,44.0,42.0,29.84,SSE,166,0.0,0.0,94,0.02,,,0.44,,2013-03-05 20:21:00,
2013-03-05 12:32:00,44.0,42.0,29.85,ESE,112,0.0,0.0,94,0.01,,,0.44,,2013-03-05 20:32:00,
2013-03-05 12:42:00,44.0,42.0,29.85,ESE,112,0.0,0.0,94,0.01,,,0.44,,2013-03-05 20:42:00,
2013-03-05 12:52:00,44.0,42.0,29.85,ESE,112,3.0,6.0,94,0.02,,,0.45,,2013-03-05 20:52:00,
2013-03-05 13:01:00,43.0,41.0,29.84,East,96,1.0,8.0,93,0.02,,,0.45,,2013-03-05 21:01:00,
2013-03-05 13:11:00,43.0,41.0,29.84,East,96,1.0,8.0,93,0.02,,,0.45,,2013-03-05 21:11:00,
2013-03-05 13:21:00,44.0,42.0,29.84,SSW,201,3.0,7.0,92,0.01,,,0.45,,2013-03-05 21:21:00,
2013-03-05 13:31:00,44.0,42.0,29.83,SSE,160,2.0,7.0,91,0.01,,,0.45,,2013-03-05 21:31:00,
2013-03-05 13:41:00,44.0,42.0,29.83,SSE,160,2.0,7.0,91,0.01,,,0.45,,2013-03-05 21:41:00,
2013-03-05 13:52:00,44.0,42.0,29.82,SSE,157,2.0,7.0,91,0.00,,,0.45,,2013-03-05 21:52:00,
2013-03-05 14:01:00,44.0,41.0,29.82,ESE,119,4.0,11.0,90,0.00,,,0.45,,2013-03-05 22:01:00,
2013-03-05 14:11:00,44.0,41.0,29.82,ESE,119,4.0,11.0,90,0.00,,,0.45,,2013-03-05 22:11:00,
2013-03-05 14:21:00,45.0,42.0,29.82,SSW,212,2.0,7.0,89,0.00,,,0.45,,2013-03-05 22:21:00,
2013-03-05 14:31:00,45.0,42.0,29.82,SW,228,1.0,6.0,89,0.00,,,0.45,,2013-03-05 22:31:00,
2013-03-05 14:41:00,45.0,42.0,29.82,SW,228,1.0,6.0,89,0.00,,,0.45,,2013-03-05 22:41:00,
2013-03-05 14:52:00,45.0,43.0,29.82,SSE,165,1.0,5.0,91,0.01,,,0.46,,2013-03-05 22:52:00,
2013-03-05 15:01:00,45.0,43.0,29.80,South,169,0.0,2.0,91,0.01,,,0.46,,2013-03-05 23:01:00,
2013-03-05 15:11:00,45.0,43.0,29.80,South,169,0.0,2.0,91,0.01,,,0.46,,2013-03-05 23:11:00,
2013-03-05 15:21:00,45.0,43.0,29.80,ESE,106,2.0,5.0,91,0.01,,,0.46,,2013-03-05 23:21:00,
2013-03-05 15:32:00,45.0,42.0,29.80,ESE,105,1.0,9.0,90,0.01,,,0.46,,2013-03-05 23:32:00,
2013-03-05 15:41:00,45.0,42.0,29.80,ESE,105,1.0,9.0,90,0.01,,,0.46,,2013-03-05 23:41:00,
2013-03-05 15:52:00,45.0,42.0,29.80,West,265,2.0,7.0,90,0.00,,,0.46,,2013-03-05 23:52:00,
2013-03-05 16:01:00,45.0,42.0,29.80,West,267,0.0,4.0,90,0.00,,,0.46,,2013-03-06 00:01:00,
2013-03-05 16:11:00,45.0,42.0,29.80,West,267,0.0,4.0,90,0.00,,,0.46,,2013-03-06 00:11:00,
2013-03-05 16:21:00,45.0,43.0,29.79,WNW,288,2.0,4.0,91,0.00,,,0.46,,2013-03-06 00:21:00,
2013-03-05 16:32:00,45.0,43.0,29.78,West,270,0.0,3.0,92,0.00,,,0.46,,2013-03-06 00:32:00,
2013-03-05 16:41:00,45.0,43.0,29.78,West,270,0.0,3.0,92,0.00,,,0.46,,2013-03-06 00:41:00,
2013-03-05 16:52:00,45.0,43.0,29.78,SW,236,0.0,1.0,92,0.00,,,0.46,,2013-03-06 00:52:00,
2013-03-05 17:01:00,45.0,43.0,29.78,SSE,150,1.0,4.0,92,0.00,,,0.46,,2013-03-06 01:01:00,
2013-03-05 17:11:00,45.0,43.0,29.78,SSE,150,1.0,4.0,92,0.00,,,0.46,,2013-03-06 01:11:00,
2013-03-05 17:21:00,45.0,43.0,29.77,East,99,1.0,3.0,93,0.00,,,0.46,,2013-03-06 01:21:00,
2013-03-05 17:31:00,45.0,43.0,29.76,SE,125,1.0,4.0,93,0.00,,,0.46,,2013-03-06 01:31:00,
2013-03-05 17:41:00,45.0,43.0,29.76,SE,125,1.0,4.0,93,0.00,,,0.46,,2013-03-06 01:41:00,
2013-03-05 17:52:00,45.0,43.0,29.76,East,91,2.0,7.0,93,0.00,,,0.46,,2013-03-06 01:52:00,
2013-03-05 18:01:00,45.0,43.0,29.75,East,82,3.0,8.0,94,0.00,,,0.46,,2013-03-06 02:01:00,
2013-03-05 18:11:00,45.0,43.0,29.75,East,82,3.0,8.0,94,0.00,,,0.46,,2013-03-06 02:11:00,
2013-03-05 18:21:00,45.0,43.0,29.75,ESE,123,2.0,7.0,93,0.01,,,0.47,,2013-03-06 02:21:00,
2013-03-05 18:31:00,45.0,43.0,29.74,ESE,111,1.0,4.0,93,0.03,,,0.49,,2013-03-06 02:31:00,
2013-03-05 18:41:00,45.0,43.0,29.74,ESE,111,1.0,4.0,93,0.03,,,0.49,,2013-03-06 02:41:00,
2013-03-05 18:52:00,45.0,43.0,29.74,ESE,107,1.0,5.0,94,0.03,,,0.49,,2013-03-06 02:52:00,
2013-03-05 19:01:00,45.0,43.0,29.74,East,97,6.0,14.0,93,0.06,,,0.52,,2013-03-06 03:01:00,
2013-03-05 19:11:00,45.0,43.0,29.74,East,97,6.0,14.0,93,0.06,,,0.52,,2013-03-06 03:11:00,
2013-03-05 19:21:00,45.0,43.0,29.73,ESE,120,2.0,7.0,93,0.07,,,0.54,,2013-03-06 03:21:00,
2013-03-05 19:31:00,45.0,43.0,29.72,ESE,108,2.0,7.0,93,0.05,,,0.54,,2013-03-06 03:31:00,
2013-03-05 19:41:00,45.0,43.0,29.72,ESE,108,2.0,7.0,93,0.05,,,0.54,,2013-03-06 03:41:00,
2013-03-05 19:52:00,44.0,42.0,29.72,SSE,163,3.0,7.0,93,0.06,,,0.55,,2013-03-06 03:52:00,
2013-03-05 20:01:00,45.0,43.0,29.72,SE,136,3.0,9.0,94,0.03,,,0.55,,2013-03-06 04:01:00,
2013-03-05 20:11:00,45.0,43.0,29.72,SE,136,3.0,9.0,94,0.03,,,0.55,,2013-03-06 04:11:00,
2013-03-05 20:21:00,45.0,43.0,29.70,ESE,108,3.0,8.0,93,0.01,,,0.55,,2013-03-06 04:21:00,
2013-03-05 20:31:00,45.0,43.0,29.70,ESE,111,6.0,13.0,94,0.01,,,0.55,,2013-03-06 04:31:00,
2013-03-05 20:41:00,45.0,43.0,29.70,ESE,111,6.0,13.0,94,0.01,,,0.55,,2013-03-06 04:41:00,
2013-03-05 20:52:00,45.0,43.0,29.69,ESE,107,6.0,13.0,94,0.00,,,0.55,,2013-03-06 04:52:00,
2013-03-05 21:01:00,44.0,42.0,29.69,SE,136,6.0,13.0,94,0.00,,,0.55,,2013-03-06 05:01:00,
2013-03-05 21:11:00,44.0,42.0,29.69,SE,136,6.0,13.0,94,0.00,,,0.55,,2013-03-06 05:11:00,
2013-03-05 21:22:00,44.0,42.0,29.68,ESE,114,7.0,14.0,94,0.00,,,0.55,,2013-03-06 05:22:00,
2013-03-05 21:32:00,44.0,42.0,29.67,ESE,110,6.0,16.0,94,0.00,,,0.55,,2013-03-06 05:32:00,
2013-03-05 21:42:00,44.0,42.0,29.67,ESE,110,6.0,16.0,94,0.00,,,0.55,,2013-03-06 05:42:00,
2013-03-05 21:52:00,44.0,42.0,29.67,ESE,111,7.0,15.0,94,0.00,,,0.55,,2013-03-06 05:52:00,
2013-03-05 22:01:00,44.0,42.0,29.67,East,95,7.0,16.0,94,0.00,,,0.55,,2013-03-06 06:01:00,
2013-03-05 22:11:00,44.0,42.0,29.67,East,95,7.0,16.0,94,0.00,,,0.55,,2013-03-06 06:11:00,
2013-03-05 22:22:00,44.0,42.0,29.66,ESE,113,7.0,15.0,94,0.00,,,0.55,,2013-03-06 06:22:00,
2013-03-05 22:31:00,44.0,42.0,29.66,SE,124,6.0,13.0,94,0.00,,,0.55,,2013-03-06 06:31:00,
2013-03-05 22:41:00,44.0,42.0,29.66,SE,124,6.0,13.0,94,0.00,,,0.55,,2013-03-06 06:41:00,
2013-03-05 22:52:00,44.0,42.0,29.66,East,81,7.0,12.0,94,0.00,,,0.55,,2013-03-06 06:52:00,
2013-03-05 23:01:00,44.0,42.0,29.66,East,92,4.0,12.0,94,0.00,,,0.55,,2013-03-06 07:01:00,
2013-03-05 23:11:00,44.0,42.0,29.66,East,92,4.0,12.0,94,0.00,,,0.55,,2013-03-06 07:11:00,
2013-03-05 23:22:00,44.0,42.0,29.65,ENE,78,4.0,8.0,94,0.01,,,0.56,,2013-03-06 07:22:00,
2013-03-05 23:31:00,44.0,42.0,29.65,SE,126,3.0,10.0,94,0.01,,,0.56,,2013-03-06 07:31:00,
2013-03-05 23:41:00,44.0,42.0,29.65,SE,126,3.0,10.0,94,0.01,,,0.56,,2013-03-06 07:41:00,
2013-03-05 23:52:00,44.0,42.0,29.65,SE,126,3.0,10.0,94,0.01,,,0.56,,2013-03-06 07:52:00,